Location: Lane
(33.5226°N, 79.8788°W)
Time: 19:54:23
(UTC+00:00)

Courier 1B Rocket - Pass Details

Date: 13 October 2022
Orbit: 920 x 1202 km, 28.3° (Epoch: 01 December)

Event Time Altitude Azimuth Distance (km) Brightness Sun altitude
Rises 18:13:25 0° 222° (SW) 4,082 8.9 45.5°
Reaches altitude 10° 18:16:44 10° 211° (SSW) 3,124 8.7 45.2°
Maximum altitude 18:23:05 28° 156° (SSE) 2,074 7.6 44.6°
Drops below altitude 10° 18:29:19 10° 101° (ESE) 3,064 7.6 44.0°
Sets 18:32:32 0° 90° (E) 3,991 8.0 43.7°
